• In Deutschland
  • Länderverzeichnis
  • Für 7 Tage
  • Wassertemperatur
  • Satellitenkarten
  • Wetterkarte
  • Widgets
  • user-avatar
    Anmelden

    Stündliche Wetter Düsseldorf

    Heute, 24 September, Montag

    Zeit Temperatur Niederschläge Wind Luftdruck Luftfeuchtigkeit
    00:00 +9°C° 0 mm 3 m/S 766 mmHg 86%
    01:00 +8°C° 0 mm 3 m/S 766 mmHg 86%
    02:00 +8°C° 0 mm 3 m/S 767 mmHg 85%
    03:00 +8°C° 0 mm 3 m/S 768 mmHg 85%
    04:00 +8°C° 0 mm 3 m/S 768 mmHg 85%
    05:00 +8°C° 0 mm 3 m/S 769 mmHg 85%
    06:00 +8°C° 0 mm 3 m/S 770 mmHg 85%
    07:00 +9°C° 0 mm 3 m/S 770 mmHg 78%
    08:00 +11°C° 0 mm 3 m/S 771 mmHg 71%
    09:00 +13°C° 0 mm 4 m/S 771 mmHg 64%
    10:00 +13°C° 0.1 mm 4 m/S 771 mmHg 60%
    11:00 +14°C° 0.1 mm 4 m/S 771 mmHg 57%
    12:00 +15°C° 0.1 mm 4 m/S 772 mmHg 53%
    13:00 +15°C° 0 mm 4 m/S 772 mmHg 52%
    14:00 +15°C° 0 mm 4 m/S 771 mmHg 51%
    15:00 +15°C° 0 mm 4 m/S 771 mmHg 50%
    16:00 +14°C° 0 mm 4 m/S 772 mmHg 55%
    17:00 +12°C° 0 mm 3 m/S 772 mmHg 59%
    18:00 +11°C° 0 mm 3 m/S 773 mmHg 64%
    19:00 +10°C° 0 mm 2 m/S 773 mmHg 67%
    20:00 +10°C° 0 mm 2 m/S 774 mmHg 70%
    21:00 +9°C° 0 mm 2 m/S 774 mmHg 73%
    22:00 +10°C° 0 mm 1 m/S 774 mmHg 75%
    23:00 +9°C° 0 mm 1 m/S 774 mmHg 77%

    Morgen, 25 September, Dienstag

    Zeit Temperatur Niederschläge Wind Luftdruck Luftfeuchtigkeit
    00:00 +9°C° 0 mm 1 m/S 775 mmHg 79%
    01:00 +9°C° 0 mm 1 m/S 775 mmHg 80%
    02:00 +7°C° 0 mm 0 m/S 775 mmHg 82%
    03:00 +7°C° 0 mm 0 m/S 775 mmHg 83%
    04:00 +7°C° 0 mm 0 m/S 775 mmHg 83%
    05:00 +7°C° 0 mm 0 m/S 775 mmHg 83%
    06:00 +7°C° 0 mm 0 m/S 775 mmHg 83%
    07:00 +9°C° 0 mm 0 m/S 775 mmHg 76%
    08:00 +11°C° 0 mm 0 m/S 776 mmHg 68%
    09:00 +13°C° 0 mm 0 m/S 776 mmHg 60%
    10:00 +14°C° 0 mm 0 m/S 776 mmHg 55%
    11:00 +16°C° 0 mm 1 m/S 775 mmHg 50%
    12:00 +18°C° 0 mm 1 m/S 775 mmHg 44%
    13:00 +18°C° 0 mm 1 m/S 775 mmHg 44%
    14:00 +18°C° 0 mm 1 m/S 775 mmHg 43%
    15:00 +18°C° 0 mm 1 m/S 774 mmHg 43%
    16:00 +16°C° 0 mm 1 m/S 774 mmHg 47%
    17:00 +14°C° 0 mm 1 m/S 774 mmHg 51%
    18:00 +13°C° 0 mm 1 m/S 774 mmHg 55%
    19:00 +12°C° 0 mm 1 m/S 774 mmHg 57%
    20:00 +12°C° 0 mm 1 m/S 775 mmHg 59%
    21:00 +11°C° 0 mm 1 m/S 775 mmHg 61%
    22:00 +11°C° 0 mm 1 m/S 775 mmHg 62%
    23:00 +9°C° 0 mm 2 m/S 774 mmHg 64%

    übermorgen, 26 September, Mittwoch

    Zeit Temperatur Niederschläge Wind Luftdruck Luftfeuchtigkeit
    00:00 +9°C° 0 mm 2 m/S 774 mmHg 65%
    01:00 +9°C° 0 mm 2 m/S 774 mmHg 65%
    02:00 +8°C° 0 mm 2 m/S 774 mmHg 66%
    03:00 +8°C° 0 mm 2 m/S 773 mmHg 66%
    04:00 +8°C° 0 mm 2 m/S 773 mmHg 66%
    05:00 +8°C° 0 mm 2 m/S 773 mmHg 66%
    06:00 +8°C° 0 mm 2 m/S 773 mmHg 65%
    07:00 +10°C° 0 mm 2 m/S 773 mmHg 59%
    08:00 +13°C° 0 mm 2 m/S 773 mmHg 52%
    09:00 +15°C° 0 mm 2 m/S 773 mmHg 46%
    10:00 +16°C° 0 mm 2 m/S 772 mmHg 42%
    11:00 +18°C° 0 mm 2 m/S 772 mmHg 38%
    12:00 +19°C° 0 mm 2 m/S 772 mmHg 35%
    13:00 +19°C° 0 mm 2 m/S 771 mmHg 35%
    14:00 +20°C° 0 mm 2 m/S 771 mmHg 35%
    15:00 +20°C° 0 mm 2 m/S 770 mmHg 36%
    16:00 +18°C° 0 mm 2 m/S 770 mmHg 40%
    17:00 +18°C° 0 mm 1 m/S 771 mmHg 45%
    18:00 +15°C° 0 mm 1 m/S 771 mmHg 49%
    19:00 +15°C° 0 mm 1 m/S 771 mmHg 50%
    20:00 +14°C° 0 mm 1 m/S 771 mmHg 52%
    21:00 +14°C° 0 mm 1 m/S 771 mmHg 53%
    22:00 +14°C° 0 mm 1 m/S 771 mmHg 54%
    23:00 +13°C° 0 mm 1 m/S 771 mmHg 55%

    27 September, Donnerstag

    Zeit Temperatur Niederschläge Wind Luftdruck Luftfeuchtigkeit
    00:00 +13°C° 0 mm 1 m/S 770 mmHg 56%
    01:00 +13°C° 0 mm 1 m/S 770 mmHg 57%
    02:00 +13°C° 0 mm 1 m/S 770 mmHg 58%
    03:00 +12°C° 0 mm 1 m/S 770 mmHg 59%
    04:00 +12°C° 0 mm 1 m/S 770 mmHg 59%
    05:00 +12°C° 0 mm 1 m/S 769 mmHg 60%
    06:00 +12°C° 0 mm 1 m/S 769 mmHg 61%
    07:00 +14°C° 0 mm 2 m/S 769 mmHg 56%
    08:00 +16°C° 0 mm 2 m/S 769 mmHg 51%
    09:00 +18°C° 0 mm 2 m/S 768 mmHg 46%
    10:00 +19°C° 0 mm 2 m/S 768 mmHg 43%
    11:00 +20°C° 0 mm 2 m/S 767 mmHg 39%
    12:00 +23°C° 0 mm 2 m/S 767 mmHg 36%
    13:00 +23°C° 0 mm 2 m/S 766 mmHg 36%
    14:00 +23°C° 0 mm 2 m/S 766 mmHg 37%
    15:00 +23°C° 0 mm 2 m/S 765 mmHg 38%
    16:00 +21°C° 0 mm 2 m/S 765 mmHg 43%
    17:00 +19°C° 0 mm 2 m/S 765 mmHg 49%
    18:00 +18°C° 0 mm 1 m/S 765 mmHg 54%
    19:00 +16°C° 0 mm 1 m/S 765 mmHg 57%
    20:00 +15°C° 0 mm 1 m/S 765 mmHg 59%
    21:00 +15°C° 0 mm 1 m/S 765 mmHg 62%
    22:00 +14°C° 0 mm 1 m/S 765 mmHg 64%
    23:00 +14°C° 0 mm 1 m/S 765 mmHg 66%

    28 September, Freitag

    Zeit Temperatur Niederschläge Wind Luftdruck Luftfeuchtigkeit
    00:00 +13°C° 0 mm 1 m/S 765 mmHg 68%
    01:00 +13°C° 0 mm 1 m/S 765 mmHg 70%
    02:00 +13°C° 0 mm 1 m/S 765 mmHg 72%
    03:00 +11°C° 0 mm 0 m/S 765 mmHg 73%
    04:00 +11°C° 0 mm 0 m/S 765 mmHg 75%
    05:00 +12°C° 0 mm 1 m/S 765 mmHg 77%
    06:00 +12°C° 0 mm 1 m/S 765 mmHg 78%
    07:00 +13°C° 0 mm 1 m/S 765 mmHg 73%
    08:00 +15°C° 0 mm 2 m/S 765 mmHg 69%
    09:00 +17°C° 0 mm 2 m/S 765 mmHg 64%
    10:00 +18°C° 0 mm 3 m/S 765 mmHg 63%
    11:00 +18°C° 0 mm 3 m/S 765 mmHg 61%
    12:00 +19°C° 0 mm 3 m/S 765 mmHg 60%
    13:00 +18°C° 0 mm 4 m/S 765 mmHg 61%
    14:00 +18°C° 0 mm 4 m/S 765 mmHg 62%
    15:00 +16°C° 0 mm 5 m/S 765 mmHg 63%
    16:00 +15°C° 0 mm 4 m/S 765 mmHg 64%
    17:00 +14°C° 0 mm 4 m/S 766 mmHg 66%
    18:00 +13°C° 0 mm 3 m/S 766 mmHg 68%
    19:00 +12°C° 0 mm 3 m/S 767 mmHg 68%
    20:00 +11°C° 0 mm 3 m/S 767 mmHg 68%
    21:00 +11°C° 0 mm 3 m/S 768 mmHg 69%
    22:00 +10°C° 0 mm 3 m/S 768 mmHg 70%
    23:00 +10°C° 0 mm 3 m/S 768 mmHg 72%

    29 September, Samstag

    Zeit Temperatur Niederschläge Wind Luftdruck Luftfeuchtigkeit
    00:00 +9°C° 0 mm 3 m/S 768 mmHg 74%
    01:00 +9°C° 0 mm 3 m/S 768 mmHg 76%
    02:00 +8°C° 0 mm 3 m/S 768 mmHg 77%
    03:00 +8°C° 0 mm 3 m/S 768 mmHg 78%
    04:00 +8°C° 0 mm 3 m/S 768 mmHg 78%
    05:00 +8°C° 0 mm 3 m/S 768 mmHg 79%
    06:00 +7°C° 0 mm 3 m/S 768 mmHg 79%
    07:00 +9°C° 0 mm 3 m/S 768 mmHg 71%
    08:00 +11°C° 0 mm 3 m/S 768 mmHg 64%
    09:00 +13°C° 0 mm 4 m/S 768 mmHg 56%
    10:00 +14°C° 0 mm 4 m/S 768 mmHg 51%
    11:00 +15°C° 0 mm 4 m/S 767 mmHg 46%
    12:00 +17°C° 0 mm 4 m/S 767 mmHg 42%
    13:00 +18°C° 0 mm 4 m/S 766 mmHg 41%
    14:00 +18°C° 0 mm 4 m/S 765 mmHg 40%
    15:00 +18°C° 0 mm 4 m/S 765 mmHg 40%
    16:00 +17°C° 0 mm 3 m/S 765 mmHg 44%
    17:00 +14°C° 0 mm 3 m/S 765 mmHg 49%
    18:00 +12°C° 0 mm 3 m/S 765 mmHg 54%
    19:00 +12°C° 0 mm 3 m/S 765 mmHg 56%
    20:00 +11°C° 0 mm 3 m/S 764 mmHg 58%
    21:00 +10°C° 0 mm 3 m/S 764 mmHg 59%
    22:00 +10°C° 0 mm 2 m/S 764 mmHg 60%
    23:00 +10°C° 0 mm 2 m/S 763 mmHg 61%
    Mehr zeigen

    3.3.7123123